Flag for Germany Weather past 2 weeks in Rheine, North Rhine-Westphalia, Germany

Now
73 °F

Scattered clouds.


Feels Like: 74 °F
Forecast: 67 / 96 °F
Wind: 1 mph from Northeast

Location: Rheine-Bentlage

Current Time: Jul 3, 2015 at 9:55:05 AM

Latest Report: Jul 3, 2015 at 9:20 AM


Visibility: N/A

Pressure: 30.27 "Hg

Humidity: 78%

Dew point: 66 °F

Location of RheineLocation

Historic Weather in Rheine — Graph

°F

Rheine temperature yesterday

Maximum temperature yesterday: 97 °F (at 4:20 PM)
Minimum temperature yesterday: 72 °F (at 4:20 AM)
Average temperature yesterday: 84 °F

Past Weeks' High & Low Weather Summary

 TemperatureHumidityPressure
High97 °F (Jul 2, 4:20 PM)100% (Jun 22, 7:20 AM)30.24 "Hg (Jun 22, 7:20 AM)
Low46 °F (Jun 23, 4:20 AM)29% (Jul 1, 3:20 PM)29.68 "Hg (Jun 22, 7:20 PM)
Average64 °F69%30.05 "Hg
* Reported Jun 18 8:20 AM — Jul 3 8:20 AM, Rheine, Weather by CustomWeather, © 2015

Note: Actual official high and low records may vary slightly from our data, if they occured in-between our weather recording intervals... More about our weather records

Advertising

Rheine weather history for previous 24 hours

 ConditionsComfort  
Time TempWeatherWind HumidityBarometerVisibility
8:20 AM
Fri, Jul 3
70 °FScattered clouds.No wind88%30.24 "HgN/A
7:20 AM66 °FScattered clouds.2 mph94%30.24 "HgN/A
6:20 AM66 °FPartly sunny.2 mph94%30.24 "HgN/A
5:20 AM68 °FPartly cloudy.2 mph88%30.21 "HgN/A
4:20 AM68 °FMild.5 mph88%30.21 "HgN/A
3:20 AM70 °FMild.8 mph83%30.15 "HgN/A
2:20 AM72 °FMild.10 mph73%30.18 "HgN/A
1:20 AM73 °FMild.14 mph69%30.15 "HgN/A
12:20 AM75 °FMild.20 mph69%30.15 "HgN/A
11:20 PM
Thu, Jul 2
79 °FWarm.8 mph65%30.09 "HgN/A
10:20 PM81 °FWarm.8 mph66%30.07 "HgN/A
9:20 PM82 °FWarm.13 mph58%30.07 "HgN/A
8:20 PM93 °FExtremely hot.6 mph36%30.04 "HgN/A
7:20 PM97 °FExtremely hot.9 mph30%30.04 "HgN/A
6:20 PM97 °FExtremely hot.8 mph30%30.04 "HgN/A
5:20 PM97 °FExtremely hot.7 mph30%30.07 "HgN/A
4:20 PM97 °FExtremely hot.8 mph30%30.04 "HgN/A
3:20 PM95 °FExtremely hot.8 mph32%30.04 "HgN/A
2:20 PM95 °FExtremely hot.9 mph34%30.07 "HgN/A
1:20 PM91 °FHot.9 mph38%30.07 "HgN/A
12:20 PM90 °FPassing clouds.8 mph41%30.07 "HgN/A
11:20 AM88 °FPassing clouds.8 mph40%30.07 "HgN/A
10:20 AM84 °FPassing clouds.7 mph43%30.09 "HgN/A
9:20 AM81 °FWarm.8 mph45%30.09 "HgN/A
Weather by CustomWeather, © 2015

See weather overviewHow to use our weather pages